Home   Weather   Inverness   Past weeks
Flag for United Kingdom

Past Weather in Inverness, Scotland, United Kingdom — Yesterday and Last 2 Weeks

Now
39 °F

Sprinkles. Partly sunny.


Feels Like: 28 °F
Forecast: 45 / 32 °F
Wind: 26 mph from West

Location: Inverness / Dalcross

Current Time: Apr 2, 2020 at 10:54:32 am

Latest Report: Apr 2, 2020 at 9:50 am


Visibility: N/A

Pressure: 29.68 "Hg

Humidity: 87%

Dew Point: 36 °F

Location of InvernessLocation

Past Weather in Inverness — Graph

°F

Inverness Temperature Yesterday

Maximum temperature yesterday: 50 °F (at 3:50 pm)
Minimum temperature yesterday: 39 °F (at 2:50 am)
Average temperature yesterday: 45 °F

High & Low Weather Summary for the Past Weeks

 TemperatureHumidityPressure
High57 °F (Mar 24, 11:20 am)100% (Mar 21, 3:20 am)30.98 "Hg (Mar 21, 3:20 am)
Low21 °F (Mar 21, 4:20 am)44% (Mar 27, 1:50 pm)29.62 "Hg (Apr 2, 4:50 am)
Average43 °F75%30.35 "Hg
* Reported Mar 18 8:20 am — Apr 2 9:20 am, Inverness. Weather by CustomWeather, © 2020

Note: Actual official high and low records may vary slightly from our data, if they occured in-between our weather recording intervals... More about our weather records

Inverness Weather History for the Previous 24 Hours

Scroll right to see more
 ConditionsComfort  
Time TempWeatherWind HumidityBarometerVisibility
9:20 am
Thu, Apr 2
41 °FSprinkles. Scattered clouds.22 mph81%29.68 "HgN/A
8:50 am43 °FScattered showers. Scattered clouds.22 mph71%29.65 "HgN/A
8:20 am43 °FScattered showers. Scattered clouds.22 mph76%29.65 "HgN/A
7:50 am43 °FSprinkles. Scattered clouds.31 mph76%29.65 "HgN/A
7:20 am45 °FSprinkles. Scattered clouds.22 mph71%29.65 "HgN/A
6:50 am45 °FScattered clouds.28 mph71%29.62 "HgN/A
6:20 am46 °FPassing clouds.26 mph66%29.65 "HgN/A
5:50 am46 °FPassing clouds.26 mph66%29.65 "HgN/A
5:20 am48 °FPassing clouds.38 mph62%29.62 "HgN/A
4:50 am48 °FPassing clouds.35 mph62%29.62 "HgN/A
4:20 am46 °FPassing clouds.36 mph66%29.65 "HgN/A
3:50 am46 °FPassing clouds.24 mph62%29.68 "HgN/A
3:20 am46 °FPassing clouds.24 mph62%29.68 "HgN/A
2:50 am46 °FPassing clouds.25 mph62%29.74 "HgN/A
2:20 am46 °FPassing clouds.31 mph62%29.74 "HgN/A
1:50 am46 °FPassing clouds.30 mph62%29.77 "HgN/A
1:20 am46 °FOvercast.26 mph66%29.80 "HgN/A
12:50 am45 °FOvercast.15 mph66%29.83 "HgN/A
12:20 am45 °FPassing clouds.22 mph66%29.86 "HgN/A
11:50 pm
Wed, Apr 1
45 °FPassing clouds.15 mph66%29.89 "HgN/A
11:20 pm45 °FQuite cool.26 mph66%29.86 "HgN/A
10:50 pm43 °FQuite cool.15 mph71%29.89 "HgN/A
10:20 pm43 °FQuite cool.14 mph71%29.92 "HgN/A
9:50 pm43 °FQuite cool.12 mph71%29.92 "HgN/A
9:20 pm45 °FQuite cool.16 mph66%29.95 "HgN/A
8:50 pm45 °FPassing clouds.17 mph66%29.95 "HgN/A
8:20 pm45 °FPassing clouds.16 mph71%29.98 "HgN/A
7:50 pm46 °FScattered clouds.18 mph66%29.98 "HgN/A
7:20 pm48 °FScattered showers. Scattered clouds.13 mph62%29.98 "HgN/A
6:50 pm48 °FScattered clouds.21 mph66%29.98 "HgN/A
6:20 pm50 °FPartly sunny.15 mph67%29.98 "HgN/A
5:50 pm50 °FPartly sunny.16 mph67%29.98 "HgN/A
5:20 pm48 °FScattered showers. Broken clouds.17 mph82%29.98 "HgN/A
4:50 pm48 °FBroken clouds.13 mph82%29.98 "HgN/A
4:20 pm50 °FLight rain. Broken clouds.13 mph82%29.98 "HgN/A
3:50 pm50 °FScattered showers. Partly sunny.14 mph88%29.98 "HgN/A
3:20 pm48 °FLight rain. Partly sunny.14 mph82%30.01 "Hg6 mi
2:50 pm48 °FScattered showers. Partly sunny.15 mph82%30.01 "HgN/A
2:20 pm48 °FPassing clouds.20 mph76%30.01 "HgN/A
1:20 pm48 °FScattered clouds.21 mph71%30.04 "HgN/A
12:50 pm48 °FBroken clouds.24 mph71%30.04 "HgN/A
12:20 pm48 °FLight rain. Broken clouds.21 mph71%30.04 "HgN/A
11:50 am48 °FBroken clouds.16 mph71%30.07 "HgN/A
11:20 am46 °FBroken clouds.21 mph71%30.07 "HgN/A
10:50 am46 °FMostly cloudy.16 mph71%30.07 "HgN/A
10:20 am45 °FPartly sunny.16 mph76%30.09 "HgN/A
Weather by CustomWeather, © 2020

See weather overview

Advertising